Weather in Ivanivka

Ukraine / Kirovohrad Region     48°45′17″N   31°14′55″E
temp.,
°C
wind,
m/s
gust,
m/s
humid.,
%
clouds,
%
prec.,
mm/h
press.,
hPa
HPBL,
m
18 may, tue
tue1800:00+13ssw229114 0.0 100417
03:00+13s33915 0.0 100341
06:00+13sse3594100 0.8 1003129
09:00+16s5781100 0.8 1003505
12:00+19sse5663100 2.0 1001997
15:00+18s886996 4.2 10001348
18:00+15sse478630 2.0 999328
21:00+13sse489391 2.8 998174
19 may, wed
wed1900:00+11s36954 0.0 999127
03:00+10s33935 0.0 99948
06:00+10sse369825 0.0 1000158
09:00+13ssw458786 0.0 1001530
12:00+16ssw557355 0.1 1003899
15:00+13wnw7887100 0.2 1005592
18:00+12wnw61188100 0.1 1006762
21:00+11wnw61388100 0.2 1008646
20 may, thu
thu2000:00+10w5129458 0.0 1008427
03:00+9w4129446 0.0 1009334
06:00+9w4109713 0.0 1009317
09:00+14wnw4670100 0.0 1010690
12:00+17nw3357100 0.0 10101206
15:00+18sw2256100 0.2 10111185
18:00+14s4683100 0.6 1012340
21:00+12ese3594100 2.4 1012166
21 may, fri
fri2100:00+11ne4695100 3.6 1012184
03:00+11ene4994100 3.8 1012307
06:00+12ne41097100 4.2 1012418
09:00+12ne61194100 7.2 1012532
12:00+12nne61194100 0.8 1013644
15:00+12nne71193100 1.1 1013659
18:00+11nne71294100 1.1 1013572
21:00+11nne7139591 2.0 1014478
22 may, sat
sat2200:00+11nne71394100 0.1 1013430
03:00+11nne61294100 0.1 1012372
06:00+11n5119596 0.0 1012367
09:00+13n71090100 0.0 1012459
12:00+17nne678090 0.0 1013741
15:00+18nne5574100 0.1 1012993
18:00+17n4682100 0.0 1012679
21:00+15n3486100 0.0 101388